This is the latest recevied weather packets stored in our database for station/object KC5DAQ-27. If no packets are shown the sender has not sent any weather packets the latest 10 day(s).
| Time | Temp. | Humidity | Pressure | Rain* | Wind** | Luminosity | Snow |
|---|---|---|---|---|---|---|---|
| 1777501400 | 29.44° C | 74% | 1000.1 hPa | 0 mm | - | 345 W/m² | - |
| 1777501338 | 29.44° C | 74% | 1000.2 hPa | 0 mm | - | 427 W/m² | - |
| 1777501277 | 29.44° C | 75% | 1000.3 hPa | 0 mm | - | 287 W/m² | - |
| 1777501215 | 29.44° C | 75% | 1000.4 hPa | 0 mm | - | 274 W/m² | - |
| 1777501152 | 29.44° C | 75% | 1000.2 hPa | 0 mm | - | 241 W/m² | - |
| 1777501092 | 29.44° C | 75% | 1000.2 hPa | 0 mm | - | 215 W/m² | - |
| 1777501031 | 29.44° C | 75% | 1000 hPa | 0 mm | - | 225 W/m² | - |
| 1777500969 | 30° C | 74% | 999.9 hPa | 0 mm | - | 241 W/m² | - |
| 1777500907 | 30° C | 75% | 999.6 hPa | 0 mm | - | 297 W/m² | - |
| 1777500846 | 30° C | 75% | 999.5 hPa | 0 mm | - | 561 W/m² | - |
| 1777500784 | 30° C | 75% | 999.5 hPa | 0 mm | - | 570 W/m² | - |
| 1777500723 | 30° C | 75% | 999.5 hPa | 0 mm | - | 682 W/m² | - |
| 1777500664 | 30° C | 75% | 999.7 hPa | 0 mm | - | 688 W/m² | - |
| 1777500603 | 30° C | 75% | 999.9 hPa | 0 mm | - | 756 W/m² | - |
| 1777500543 | 30° C | 75% | 999.9 hPa | 0 mm | - | 793 W/m² | - |
| 1777500482 | 29.44° C | 75% | 999.9 hPa | 0 mm | - | 651 W/m² | - |
| 1777500422 | 29.44° C | 75% | 1000 hPa | 0 mm | - | 782 W/m² | - |
| 1777500362 | 29.44° C | 76% | 1000 hPa | 0 mm | - | 652 W/m² | - |
| 1777500303 | 29.44° C | 76% | 1000.1 hPa | 0 mm | - | 457 W/m² | - |
| 1777500242 | 29.44° C | 75% | 1000.1 hPa | 0 mm | - | 570 W/m² | - |
| 1777500182 | 29.44° C | 75% | 1000.3 hPa | 0 mm | - | 404 W/m² | - |
| 1777500124 | 29.44° C | 75% | 1000.5 hPa | 0 mm | - | 397 W/m² | - |
| 1777500063 | 29.44° C | 75% | 1000.5 hPa | 0 mm | - | 443 W/m² | - |
| 1777500003 | 29.44° C | 75% | 1000.6 hPa | 0 mm | - | 318 W/m² | - |
| 1777499944 | 29.44° C | 75% | 1000.7 hPa | 0 mm | - | 302 W/m² | - |
* Rain latest hour (hover to see other rain measurements)
** Current wind speed in m/s (hover to see current wind gust speed)